Theta_e
327 331 333 333 333 333 333 328 327 328 330 330 331 331 331 331 331 330 330 329 325 327 330 330 329 328 326 326 326 325 324 323 322 321 320 319 320 320 321 321 321 321 321
311 326 331 332 329 331 330 327 326 324 327 329 331 331 331 331 330 330 330 329 325 326 327 329 329 329 327 326 325 324 324 323 323 322 320 319 319 319 320 321 321 321 322
309 314 326 331 331 332 330 328 324 324 326 326 329 331 331 330 330 329 330 329 327 325 327 327 326 327 328 328 326 325 324 324 324 324 325 325 324 324 323 323 322 323 322
307 310 319 327 331 331 331 327 326 326 328 328 327 328 329 330 329 328 329 328 327 326 326 326 326 325 325 328 328 326 326 326 325 325 323 322 323 321 319 319 319 318 317
306 307 310 324 328 330 330 329 326 326 329 328 328 327 327 327 327 327 326 326 325 325 325 326 326 326 324 325 327 327 327 322 321 320 318 319 319 320 318 316 315 314 312
303 308 309 316 326 328 329 329 327 326 327 328 325 324 324 324 323 324 323 323 323 323 322 325 325 325 325 325 324 321 318 315 314 312 312 312 311 311 311 310 309 309 308
309 310 311 311 320 327 328 326 326 326 327 325 319 307 309 315 317 315 320 321 321 320 319 321 322 321 317 315 315 313 312 311 309 308 307 307 305 304 305 305 305 305 305
313 313 315 313 314 325 327 327 327 327 327 323 318 313 309 303 300 301 305 313 310 311 314 312 314 314 311 308 304 304 305 305 305 303 302 301 300 300 300 300 300 300 300
310 311 313 316 315 320 324 326 327 326 326 322 322 320 317 319 299 293 291 294 297 299 299 301 300 303 306 299 299 293 293 295 297 297 296 295 295 295 296 295 296 296 296
305 306 309 312 315 320 323 324 325 325 325 325 324 323 319 309 306 298 290 290 291 293 292 295 295 296 297 296 297 295 293 295 295 296 295 292 290 292 292 293 293 294 294
302 306 308 310 312 315 322 324 325 326 325 325 325 323 313 308 303 300 295 288 288 289 290 291 292 293 293 293 294 292 293 293 288 286 285 285 286 288 289 290 291 292 292
298 303 304 307 308 313 319 322 324 324 325 325 324 322 315 310 307 301 296 291 287 283 286 286 288 290 291 292 292 288 286 284 283 283 283 283 284 286 287 288 289 290 290
294 298 299 302 304 308 311 314 316 319 321 321 319 317 315 311 308 301 297 289 287 282 282 282 283 284 284 287 288 283 282 281 281 281 281 281 283 284 284 285 287 287 288
289 291 294 296 299 301 302 302 303 304 306 304 304 305 301 302 304 302 296 293 290 287 283 280 280 282 282 283 282 279 278 278 278 278 279 280 281 282 283 284 285 285 285
287 288 290 292 294 295 295 296 294 292 293 295 296 294 296 295 297 299 297 295 293 290 286 280 279 280 280 279 278 278 277 277 277 277 277 278 279 280 281 282 283 283 284
285 286 287 288 289 290 289 290 288 287 286 285 287 288 289 289 291 294 295 296 296 292 287 281 280 279 276 275 276 275 275 276 276 276 277 277 278 279 280 280 281 281 282
282 283 283 284 285 286 286 286 283 286 282 282 283 284 283 287 285 287 291 291 291 290 283 279 279 277 276 275 275 275 275 275 276 275 276 276 277 278 278 279 279 279 280
280 281 282 282 282 283 285 287 286 282 283 281 281 280 279 282 282 280 282 282 281 282 281 279 277 276 276 275 274 274 274 274 275 275 274 275 276 276 277 277 278 278 278
279 279 279 279 279 278 278 278 278 279 278 279 279 278 280 280 278 278 278 278 278 278 279 278 276 275 274 274 274 273 273 273 273 273 273 274 274 275 275 275 276 277 277
279 279 278 278 278 279 279 278 279 278 277 277 277 277 277 277 278 277 277 277 277 277 276 276 275 274 274 273 273 272 272 272 272 273 273 273 273 273 273 274 274 275 275
278 278 277 277 278 278 278 278 278 277 277 276 277 277 276 276 277 276 276 276 276 276 276 276 275 274 274 273 272 271 271 271 272 273 273 272 272 271 271 272 272 273 273
278 278 277 277 278 278 278 277 277 277 276 276 275 275 275 275 275 275 274 275 275 275 275 275 274 273 273 272 271 271 271 272 273 272 271 271 270 270 271 272 272 273 273
277 277 277 276 277 277 277 276 276 276 276 275 275 275 275 275 274 274 274 273 273 273 273 273 273 273 272 272 271 271 271 271 271 271 270 270 270 269 271 271 272 273 273
277 277 276 276 276 276 275 275 275 275 275 274 274 275 275 276 276 275 274 273 273 272 272 272 272 272 272 272 272 272 270 270 269 270 269 269 270 270 270 270 271 272 273
277 277 277 276 276 276 275 275 274 273 273 273 274 275 274 275 275 275 274 274 273 273 272 272 272 272 272 272 271 270 268 269 269 269 269 269 269 270 269 270 271 272 273
277 277 277 277 277 277 276 275 275 275 274 274 273 273 274 274 275 275 274 273 273 272 273 273 272 271 271 270 268 268 267 267 267 267 270 269 269 269 268 270 271 270 271
Wind_Speed
5 5 4 7 12 21 16 7 11 13 19 21 18 21 23 20 17 17 14 15 21 18 14 14 14 15 14 15 15 14 13 12 12 11 10 10 10 9 9 9 8 8 8
5 4 5 10 14 22 24 25 25 24 20 21 19 19 24 22 20 17 15 16 24 20 16 15 16 16 16 16 17 16 15 14 13 12 10 10 9 9 10 11 11 9 9
8 6 6 9 15 25 28 25 28 30 24 18 20 20 20 22 22 18 17 15 21 21 20 17 16 18 18 18 17 17 16 15 14 14 15 16 15 12 9 14 18 10 8
9 10 8 12 14 21 27 29 27 25 27 32 26 21 20 19 23 20 19 15 13 16 15 22 16 15 16 20 18 18 17 15 19 18 17 16 16 16 9 5 3 4 5
10 12 14 13 15 16 22 26 26 26 21 23 26 17 16 10 8 9 10 9 10 13 12 8 13 13 12 13 11 17 21 23 21 18 14 11 11 11 9 8 8 6 1
13 14 16 15 13 15 17 25 25 25 24 20 16 23 15 12 7 9 10 11 11 11 11 14 12 11 9 11 18 21 22 21 19 15 12 10 6 4 5 2 2 0 2
11 15 11 13 15 17 20 22 24 22 19 22 21 16 16 12 14 12 16 14 11 15 17 19 21 22 26 24 21 18 19 18 17 15 14 12 10 6 5 2 3 3 3
10 9 11 13 15 18 19 22 27 19 21 34 9 9 3 2 11 9 15 18 18 19 23 24 25 29 31 30 22 20 18 16 15 15 11 10 7 5 4 3 3 4 6
6 8 11 10 17 18 19 21 26 25 17 27 26 9 4 3 6 5 11 10 16 19 19 23 25 26 30 25 29 18 17 17 14 11 10 8 7 5 6 6 6 6 7
6 9 12 16 19 14 20 23 23 25 24 19 20 25 10 10 4 3 6 9 11 18 16 21 20 19 18 17 15 8 7 9 7 4 3 2 5 6 4 5 7 9 11
7 9 10 13 14 25 19 21 24 26 27 25 26 17 7 9 12 4 4 5 10 12 14 14 16 15 14 12 11 7 5 5 4 3 3 1 3 5 6 7 9 10 13
8 8 9 9 11 16 17 20 24 24 25 22 24 27 18 8 7 5 3 5 8 6 11 11 13 14 13 12 9 8 5 4 4 1 2 3 5 7 8 9 11 13 14
5 5 5 5 6 7 8 12 16 22 24 25 25 23 22 20 18 12 15 7 4 4 3 5 9 11 10 10 7 4 1 1 2 3 6 6 8 10 11 12 14 15 16
1 2 1 4 6 6 9 10 12 11 14 13 14 16 15 15 17 22 15 20 4 3 4 5 7 9 9 8 6 4 1 3 4 4 8 8 10 12 14 16 18 18 18
6 7 7 9 11 11 12 15 18 17 17 18 19 18 18 16 15 17 20 16 10 4 2 7 4 8 8 5 4 1 3 6 8 7 9 11 13 15 17 18 19 19 20
12 12 13 16 17 17 17 21 24 25 24 22 27 26 26 24 23 25 21 15 11 10 4 4 5 10 8 4 3 2 6 7 8 10 11 13 15 18 19 19 19 21 23
18 20 21 24 25 26 27 30 34 35 34 32 36 35 32 30 30 28 25 20 17 14 9 6 6 8 7 5 2 5 8 9 10 13 14 16 19 19 19 21 23 24 25
25 27 30 33 35 36 37 39 39 35 40 36 35 30 33 32 32 26 25 24 19 11 10 13 10 4 3 4 5 8 10 10 13 15 16 19 20 19 21 23 25 27 27
32 32 34 34 35 36 35 37 37 38 37 34 33 25 33 27 30 26 21 22 20 18 15 15 8 4 2 3 9 10 11 14 15 16 18 20 18 20 25 26 27 28 28
36 36 35 35 35 35 35 36 38 34 31 31 31 34 30 26 28 23 19 19 17 18 17 16 10 4 3 4 10 11 13 15 19 23 20 18 19 22 26 29 27 26 28
34 33 33 33 32 34 32 34 35 31 30 28 33 34 27 27 24 20 19 15 13 15 12 10 7 1 2 6 7 8 14 18 21 16 15 18 26 29 33 25 26 29 29
29 29 30 30 29 27 22 25 29 27 25 25 26 24 23 22 19 19 17 16 13 11 8 4 3 3 2 4 7 11 14 16 6 6 20 30 28 29 28 26 26 27 32
28 27 26 26 27 24 20 19 21 22 22 21 19 17 17 15 13 13 12 12 14 11 7 3 3 3 6 6 11 15 15 16 19 24 29 28 21 30 25 25 27 32 33
24 23 23 22 24 19 17 17 19 19 19 18 15 16 13 11 11 9 8 8 7 5 3 3 5 7 9 13 15 17 21 24 25 23 23 17 17 22 30 30 33 30 29
21 19 17 18 17 14 12 11 11 12 15 14 13 11 8 7 10 10 7 6 7 6 6 7 10 12 16 17 17 19 18 15 15 12 24 22 16 27 29 27 18 18 22
14 13 14 15 13 12 11 10 10 10 10 7 7 6 8 6 7 7 7 8 10 10 15 19 20 20 19 18 15 15 18 15 14 12 3 9 18 16 12 15 16 33 29
Wind_Direction
285 265 257 219 219 232 183 155 174 210 196 201 204 205 204 208 208 205 204 209 199 197 201 211 210 206 205 204 204 202 201 202 206 202 206 207 214 217 222 233 237 247 260
267 299 255 219 198 218 205 207 217 200 223 204 204 205 208 210 208 210 206 212 206 205 211 220 220 212 211 207 206 207 206 209 211 213 217 225 226 230 234 242 243 246 247
256 235 244 246 222 210 216 212 192 192 201 219 217 205 210 217 215 213 210 207 212 216 222 224 234 236 223 213 213 208 209 212 214 229 238 239 240 240 193 243 240 233 224
261 263 233 240 223 217 209 205 199 204 198 207 211 218 218 221 226 225 221 224 222 221 233 234 235 245 246 231 216 206 193 172 165 154 140 134 150 157 155 135 163 257 284
262 265 259 236 234 216 211 199 197 203 204 206 202 207 200 208 211 214 206 189 181 192 213 216 222 234 243 234 229 219 189 140 138 146 152 177 182 196 224 252 246 227 186
246 240 246 247 239 230 224 204 196 201 210 199 172 175 180 204 211 196 172 170 163 186 187 187 172 161 178 146 117 118 120 115 119 123 119 121 126 172 209 162 155 82 329
228 244 244 252 247 241 220 221 201 195 197 178 147 101 107 159 178 178 200 208 172 169 161 153 171 146 121 107 115 102 103 103 106 105 103 103 105 91 74 56 29 11 3
244 246 254 248 248 244 223 205 203 196 201 183 150 137 137 94 99 128 157 163 164 168 167 155 151 154 139 126 99 103 98 97 100 101 95 91 75 66 68 30 4 337 328
275 271 250 260 246 242 237 221 214 207 200 189 184 158 161 162 116 32 52 121 152 154 151 145 139 145 147 137 136 92 86 95 94 94 84 57 59 34 34 358 346 327 317
292 270 258 250 249 258 234 232 226 213 198 194 191 203 191 143 148 146 66 88 124 136 140 146 144 139 142 151 146 133 122 126 136 145 126 21 19 2 358 337 317 319 312
296 289 282 272 256 249 261 232 215 208 206 199 201 194 158 143 143 145 144 152 122 137 148 143 151 154 148 143 145 153 133 108 115 121 79 18 324 314 321 315 310 311 309
319 304 288 270 256 243 250 235 232 220 209 204 198 202 186 172 175 147 124 141 126 132 143 156 152 150 154 163 157 144 112 126 113 50 314 322 312 308 307 310 309 310 305
312 315 295 258 243 229 227 221 204 200 204 206 197 195 195 197 177 146 123 129 134 135 130 145 153 148 157 147 142 110 118 249 40 350 313 317 316 311 311 314 311 308 304
33 42 96 162 149 172 171 173 165 153 169 159 170 164 147 146 163 162 150 145 117 126 137 180 173 163 156 134 125 130 294 313 302 281 298 312 314 315 316 314 310 306 303
90 102 118 125 120 130 142 133 123 115 125 130 123 128 120 113 128 141 149 150 124 140 134 181 163 188 148 144 148 123 288 282 292 286 307 316 319 317 314 309 305 303 299
107 110 113 108 114 116 120 119 108 105 109 98 102 104 99 97 100 107 113 106 107 118 120 147 178 182 157 162 228 284 288 297 300 304 309 311 314 313 306 303 299 297 295
106 105 103 106 106 105 103 104 97 102 95 90 90 87 87 92 84 85 89 88 87 98 109 106 125 153 174 189 262 308 310 302 304 305 309 309 310 306 301 297 296 294 293
95 95 98 97 96 98 101 100 98 98 97 84 90 86 80 82 80 75 80 80 75 78 114 125 132 146 173 273 300 316 317 312 312 308 308 306 304 297 297 297 296 294 294
89 87 90 86 89 92 90 92 95 92 88 89 90 85 85 86 78 71 74 80 80 88 94 118 121 124 143 318 318 332 331 315 317 310 308 303 300 297 302 302 299 294 293
90 90 88 91 94 98 97 98 97 91 88 87 90 83 77 80 86 80 72 71 75 79 79 81 84 78 35 325 338 329 319 323 315 317 309 298 302 301 299 299 295 294 298
85 88 88 89 92 94 96 102 100 99 95 91 87 85 81 75 74 76 74 69 70 71 69 71 73 117 24 347 339 314 312 319 317 318 305 299 302 299 305 299 293 295 295
87 88 89 88 86 86 87 90 98 93 92 84 82 81 76 71 67 68 68 64 67 70 66 74 61 22 348 316 312 318 319 325 334 317 311 300 298 292 303 298 293 291 293
91 84 82 83 82 81 83 86 92 92 87 81 75 74 70 62 57 56 52 47 47 50 50 37 339 331 308 314 317 312 302 296 284 295 302 296 294 287 297 296 291 288 288
85 83 84 88 86 79 79 80 86 89 88 85 82 77 78 70 52 48 43 40 28 21 1 342 302 296 296 304 303 294 295 291 289 287 289 281 298 289 290 286 288 282 277
90 83 82 81 82 83 81 85 91 89 82 76 72 79 81 63 40 31 20 2 349 351 336 321 312 298 296 297 294 290 283 291 297 292 291 277 290 300 294 284 289 280 278
87 89 84 81 74 75 66 69 73 77 85 91 84 62 47 52 27 17 359 343 332 335 330 318 313 308 306 299 289 274 274 269 278 305 248 305 301 318 315 283 288 282 285